OneWeb SL0205

operational
NORAD ID: 48226 Int'l Des: 2021-031 Owner: ONEWEBN Country: UK Constellation: oneweb
LEOCIRCULARPOLARONEWEB_TYPE

OneWeb SL0205について

説明を読み込み中...

リアルタイム位置

3D地球を読み込み中...

次回通過

高度履歴

Altitude vs Time

uPlot chart will show altitude changes over time

軌道要素

1 48226U 21031S 25304.63216378 .00000179 00000-0 44700-3 0 9994
2 48226 87.9011 335.2270 0001937 88.8971 271.2381 13.14503721218241
Epoch: Oct 31, 2025 • Age: 10 hours

現在のステータス

高度 1217.7 km
速度 7.25 km/s
衛星直下点 78.64°N, 91.83°E
打ち上げ日 Apr 25, 2021
運用期間 4.5 years
タイプ internet

技術仕様

分類 Payload
質量 148.00 kg
乾燥質量 140.00 kg
総質量 148.00 kg
長さ 1.30 m
直径 1.00 m
スパン 5.00 m
形状 Trapezoid+2 pan
製造者 ONEWUS
バスタイプ ARROW
フェーズステータス In Orbit
所有者/国 ONEWEBN/UK

大規模コンステレーション

Loading constellations...